This is the latest recevied weather packets stored in our database for station/object KC5DAQ-26. If no packets are shown the sender has not sent any weather packets the latest 10 day(s).
| Time | Temp. | Humidity | Pressure | Rain* | Wind** | Luminosity | Snow |
|---|---|---|---|---|---|---|---|
| 1788016517 | 29.44° C | 84% | 1021.2 hPa | 0 mm | - | 640 W/m² | - |
| 1788016457 | 29.44° C | 84% | 1021.2 hPa | 0 mm | - | 619 W/m² | - |
| 1788016394 | 29.44° C | 84% | 1021.2 hPa | 0 mm | - | 584 W/m² | - |
| 1788016332 | 29.44° C | 84% | 1021.2 hPa | 0 mm | - | 454 W/m² | - |
| 1788016271 | 29.44° C | 84% | 1021.1 hPa | 0 mm | - | 640 W/m² | - |
| 1788016210 | 29.44° C | 84% | 1021.1 hPa | 0 mm | - | 619 W/m² | - |
| 1788016148 | 29.44° C | 84% | 1021.2 hPa | 0 mm | - | 615 W/m² | - |
| 1788016086 | 29.44° C | 85% | 1021.1 hPa | 0 mm | - | 614 W/m² | - |
| 1788016024 | 29.44° C | 85% | 1021.1 hPa | 0 mm | - | 614 W/m² | - |
| 1788015964 | 29.44° C | 85% | 1021.2 hPa | 0 mm | - | 612 W/m² | - |
| 1788015910 | 29.44° C | 85% | 1021.1 hPa | 0 mm | - | 608 W/m² | - |
| 1788015844 | 29.44° C | 85% | 1021.1 hPa | 0 mm | - | 601 W/m² | - |
| 1788015784 | 29.44° C | 85% | 1021.1 hPa | 0 mm | - | 536 W/m² | - |
| 1788015723 | 29.44° C | 85% | 1021.3 hPa | 0 mm | - | 288 W/m² | - |
| 1788015663 | 29.44° C | 84% | 1021.3 hPa | 0 mm | - | 86 W/m² | - |
| 1788015602 | 29.44° C | 84% | 1021.3 hPa | 0 mm | - | 76 W/m² | - |
| 1788015544 | 29.44° C | 85% | 1021.3 hPa | 0 mm | - | 443 W/m² | - |
| 1788015482 | 29.44° C | 85% | 1021.3 hPa | 0 mm | - | 559 W/m² | - |
| 1788015423 | 29.44° C | 86% | 1021.2 hPa | 0 mm | - | 557 W/m² | - |
| 1788015363 | 29.44° C | 86% | 1021.3 hPa | 0 mm | - | 561 W/m² | - |
| 1788015304 | 28.89° C | 85% | 1021.2 hPa | 0 mm | - | 557 W/m² | - |
| 1788015242 | 28.89° C | 85% | 1021.2 hPa | 0 mm | - | 556 W/m² | - |
| 1788015182 | 29.44° C | 85% | 1021.1 hPa | 0 mm | - | 554 W/m² | - |
| 1788015122 | 29.44° C | 86% | 1021.1 hPa | 0 mm | - | 550 W/m² | - |
| 1788015063 | 29.44° C | 86% | 1021.1 hPa | 0 mm | - | 547 W/m² | - |
* Rain latest hour (hover to see other rain measurements)
** Current wind speed in m/s (hover to see current wind gust speed)